^^
Saratoga-Weather Station Historical Data
Daily Summary for June 22, 2021 Units:  Metric    English   Both
Daily Weekly Monthly Yearly Custom
  High: Low: Average:
Temperature: 19 °C 15.4 °C 16.6 °C
Dew Point: 16.6 °C 13.5 °C 14.7 °C
Humidity: 95% 76% 89%
Wind Speed: 9.7km/h 0km/h 1.9km/h
Wind Gust: 12.9km/h - -
Wind- - SSE
Pressure: 1015.2 hPa 1008.5 hPa -
Precipitation: 4.8 mm    
Historical Graphs
 
 
Tabular Data for June 22, 2021
Time Temperature Dew Point Pressure Wind Wind Speed Wind Gust Humidity Rainfall Rate (Hourly) solar
00:02 19 °C 14.7 °C 1008.5 hPa Calm   4.8 km/h 76% 0.0 mm 0 W/m2
00:07 18.9 °C 14.6 °C 1008.5 hPa NE 3.2 km/h 6.4 km/h 76% 0.0 mm 0 W/m2
00:12 18.8 °C 14.5 °C 1008.5 hPa West 3.2 km/h 9.7 km/h 76% 0.0 mm 0 W/m2
00:17 18.8 °C 14.5 °C 1008.5 hPa ENE 1.4 km/h 8 km/h 76% 0.0 mm 0 W/m2
00:22 18.7 °C 14.6 °C 1008.5 hPa West 1.4 km/h 6.4 km/h 77% 0.0 mm 0 W/m2
00:27 18.6 °C 14.3 °C 1008.5 hPa NE 1.4 km/h 4.8 km/h 76% 0.0 mm 0 W/m2
00:32 18.6 °C 14.5 °C 1008.5 hPa North 1.4 km/h 4.8 km/h 77% 0.0 mm 0 W/m2
00:37 18.5 °C 14.4 °C 1008.5 hPa SSW 1.4 km/h 4.8 km/h 77% 0.0 mm 0 W/m2
00:42 18.4 °C 14.5 °C 1008.8 hPa Calm   6.4 km/h 78% 0.0 mm 0 W/m2
00:47 18.3 °C 14.4 °C 1008.8 hPa ESE 3.2 km/h 4.8 km/h 78% 0.0 mm 0 W/m2
00:52 18.3 °C 14.4 °C 1008.8 hPa Calm   1.6 km/h 78% 0.0 mm 0 W/m2
00:57 18.2 °C 14.5 °C 1009.1 hPa ESE 4.7 km/h 6.4 km/h 79% 0.0 mm 0 W/m2
01:02 18.2 °C 14.5 °C 1009.1 hPa North 3.2 km/h 4.8 km/h 79% 0.0 mm 0 W/m2
01:07 18.1 °C 14.6 °C 1009.1 hPa Calm     80% 0.0 mm 0 W/m2
01:12 18.1 °C 14.6 °C 1009.1 hPa Calm   3.2 km/h 80% 0.0 mm 0 W/m2
01:17 18.1 °C 14.6 °C 1009.1 hPa NE 1.4 km/h 3.2 km/h 80% 0.0 mm 0 W/m2
01:22 18 °C 14.5 °C 1009.1 hPa Calm   1.6 km/h 80% 0.0 mm 0 W/m2
01:27 18 °C 14.7 °C 1009.1 hPa NE 3.2 km/h 4.8 km/h 81% 0.0 mm 0 W/m2
01:32 17.9 °C 14.6 °C 1009.1 hPa East 3.2 km/h 3.2 km/h 81% 0.0 mm 0 W/m2
01:37 17.8 °C 14.7 °C 1009.1 hPa Calm   3.2 km/h 82% 0.0 mm 0 W/m2
01:42 17.7 °C 14.6 °C 1009.5 hPa Calm   4.8 km/h 82% 0.0 mm 0 W/m2
01:47 17.7 °C 14.8 °C 1009.5 hPa ENE 1.4 km/h 6.4 km/h 83% 0.0 mm 0 W/m2
01:52 17.6 °C 14.7 °C 1009.8 hPa East 4.7 km/h 4.8 km/h 83% 0.0 mm 0 W/m2
01:57 17.5 °C 14.6 °C 1009.5 hPa NE 3.2 km/h 4.8 km/h 83% 0.0 mm 0 W/m2
02:02 17.4 °C 14.7 °C 1009.5 hPa ESE 4.7 km/h 6.4 km/h 84% 0.0 mm 0 W/m2
02:07 17.4 °C 14.7 °C 1009.5 hPa Calm   8 km/h 84% 0.0 mm 0 W/m2
02:12 17.4 °C 14.7 °C 1009.8 hPa East 1.4 km/h 3.2 km/h 84% 0.0 mm 0 W/m2
02:17 17.3 °C 14.6 °C 1009.8 hPa North 1.4 km/h 6.4 km/h 84% 0.0 mm 0 W/m2
02:22 17.3 °C 14.6 °C 1009.8 hPa Calm   8 km/h 84% 0.0 mm 0 W/m2
02:28 17.2 °C 14.7 °C 1009.5 hPa NE 1.4 km/h 3.2 km/h 85% 0.0 mm 0 W/m2
02:33 17.1 °C 14.6 °C 1009.5 hPa East 4.7 km/h 4.8 km/h 85% 0.0 mm 0 W/m2
02:38 16.9 °C 14.4 °C 1009.5 hPa ENE 1.4 km/h 9.7 km/h 85% 0.0 mm 0 W/m2
02:43 16.8 °C 14.3 °C 1009.5 hPa ESE 3.2 km/h 6.4 km/h 85% 0.0 mm 0 W/m2
02:48 16.7 °C 14.3 °C 1009.1 hPa ENE 4.7 km/h 8 km/h 86% 0.0 mm 0 W/m2
02:53 16.6 °C 14.2 °C 1009.1 hPa East 3.2 km/h 6.4 km/h 86% 0.0 mm 0 W/m2
02:58 16.6 °C 14.2 °C 1009.1 hPa Calm   4.8 km/h 86% 0.0 mm 0 W/m2
03:03 16.5 °C 14.1 °C 1009.1 hPa ESE 3.2 km/h 6.4 km/h 86% 0.0 mm 0 W/m2
03:08 16.4 °C 14.2 °C 1009.1 hPa NNW 4.7 km/h 6.4 km/h 87% 0.0 mm 0 W/m2
03:13 16.4 °C 14.2 °C 1009.5 hPa Calm   3.2 km/h 87% 0.0 mm 0 W/m2
03:18 16.4 °C 14.2 °C 1009.5 hPa ESE 3.2 km/h 6.4 km/h 87% 0.0 mm 0 W/m2
03:23 16.4 °C 14.2 °C 1009.1 hPa Calm   1.6 km/h 87% 0.0 mm 0 W/m2
03:28 16.4 °C 14.2 °C 1009.1 hPa WNW 1.4 km/h 4.8 km/h 87% 0.0 mm 0 W/m2
03:33 16.4 °C 14.2 °C 1009.1 hPa Calm   4.8 km/h 87% 0.0 mm 0 W/m2
03:38 16.4 °C 14.2 °C 1009.1 hPa NNW 3.2 km/h 4.8 km/h 87% 0.0 mm 0 W/m2
03:43 16.4 °C 14.2 °C 1009.1 hPa West 1.4 km/h 4.8 km/h 87% 0.0 mm 0 W/m2
03:48 16.3 °C 14.1 °C 1009.1 hPa ENE 3.2 km/h 6.4 km/h 87% 0.0 mm 0 W/m2
03:53 16.3 °C 14.1 °C 1009.1 hPa SE 4.7 km/h 6.4 km/h 87% 0.0 mm 0 W/m2
03:58 16.3 °C 14.1 °C 1009.1 hPa NNW 4.7 km/h 4.8 km/h 87% 0.0 mm 0 W/m2
04:03 16.2 °C 14 °C 1009.1 hPa Calm   4.8 km/h 87% 0.0 mm 0 W/m2
04:08 16.2 °C 14 °C 1009.1 hPa ESE 3.2 km/h 3.2 km/h 87% 0.0 mm 0 W/m2
04:13 16.2 °C 14 °C 1009.1 hPa East 3.2 km/h 8 km/h 87% 0.0 mm 0 W/m2
04:18 16.2 °C 14 °C 1009.1 hPa ESE 3.2 km/h 6.4 km/h 87% 0.0 mm 0 W/m2
04:23 16.2 °C 14 °C 1009.1 hPa East 3.2 km/h 4.8 km/h 87% 0.0 mm 0 W/m2
04:28 16.2 °C 14 °C 1008.8 hPa Calm   3.2 km/h 87% 0.0 mm 0 W/m2
04:33 16.2 °C 14 °C 1008.8 hPa NE 1.4 km/h 9.7 km/h 87% 0.0 mm 0 W/m2
04:38 16.1 °C 13.9 °C 1009.1 hPa NE 6.4 km/h 6.4 km/h 87% 0.0 mm 0 W/m2
04:43 16.1 °C 13.9 °C 1009.1 hPa Calm   3.2 km/h 87% 0.0 mm 0 W/m2
04:48 16.1 °C 14.1 °C 1009.1 hPa East 3.2 km/h 4.8 km/h 88% 0.0 mm 0 W/m2
04:53 16.1 °C 13.9 °C 1009.1 hPa North 6.4 km/h 6.4 km/h 87% 0.0 mm 0 W/m2
04:58 16.1 °C 13.9 °C 1009.1 hPa NE 1.4 km/h 6.4 km/h 87% 0.0 mm 0 W/m2
05:03 15.9 °C 13.7 °C 1009.1 hPa WNW 1.4 km/h 6.4 km/h 87% 0.0 mm 0 W/m2
05:08 15.9 °C 13.9 °C 1009.5 hPa ENE 1.4 km/h 6.4 km/h 88% 0.0 mm 0 W/m2
05:13 15.8 °C 13.8 °C 1009.5 hPa Calm   4.8 km/h 88% 0.0 mm 0 W/m2
05:18 15.8 °C 13.8 °C 1009.5 hPa East 3.2 km/h 4.8 km/h 88% 0.0 mm 0 W/m2
05:23 15.8 °C 13.8 °C 1009.8 hPa North 1.4 km/h 8 km/h 88% 0.0 mm 0 W/m2
05:28 15.7 °C 13.7 °C 1009.8 hPa Calm   1.6 km/h 88% 0.0 mm 0 W/m2
05:33 15.7 °C 13.7 °C 1009.8 hPa NNE 3.2 km/h 8 km/h 88% 0.0 mm 0 W/m2
05:38 15.7 °C 13.7 °C 1009.5 hPa Calm   1.6 km/h 88% 0.0 mm 0 W/m2
05:43 15.7 °C 13.7 °C 1009.5 hPa NW 1.4 km/h 6.4 km/h 88% 0.0 mm 0 W/m2
05:48 15.7 °C 13.7 °C 1009.5 hPa Calm   3.2 km/h 88% 0.0 mm 0 W/m2
05:53 15.7 °C 13.7 °C 1009.8 hPa North 3.2 km/h 8 km/h 88% 0.0 mm 0 W/m2
05:58 15.6 °C 13.6 °C 1009.8 hPa NNW 1.4 km/h 4.8 km/h 88% 0.0 mm 0 W/m2
06:03 15.6 °C 13.6 °C 1009.5 hPa West 3.2 km/h 8 km/h 88% 0.0 mm 5 W/m2
06:08 15.6 °C 13.6 °C 1009.5 hPa NNE 3.2 km/h 4.8 km/h 88% 0.0 mm 7 W/m2
06:13 15.5 °C 13.5 °C 1009.5 hPa ENE 1.4 km/h 4.8 km/h 88% 0.0 mm 5 W/m2
06:18 15.5 °C 13.5 °C 1009.5 hPa Calm   4.8 km/h 88% 0.0 mm 7 W/m2
06:23 15.5 °C 13.5 °C 1009.5 hPa Calm   3.2 km/h 88% 0.0 mm 11 W/m2
06:28 15.5 °C 13.5 °C 1009.5 hPa Calm   3.2 km/h 88% 0.0 mm 12 W/m2
06:33 15.5 °C 13.5 °C 1009.8 hPa ENE 3.2 km/h 8 km/h 88% 0.0 mm 12 W/m2
06:38 15.5 °C 13.5 °C 1009.5 hPa Calm   3.2 km/h 88% 0.0 mm 11 W/m2
06:43 15.6 °C 13.6 °C 1009.8 hPa Calm   8 km/h 88% 0.0 mm 12 W/m2
06:48 15.6 °C 13.6 °C 1009.8 hPa Calm   11.3 km/h 88% 0.0 mm 16 W/m2
06:53 15.6 °C 13.6 °C 1010.2 hPa ENE 1.4 km/h 1.6 km/h 88% 0.0 mm 16 W/m2
06:58 15.6 °C 13.6 °C 1010.2 hPa ENE 1.4 km/h 8 km/h 88% 0.0 mm 12 W/m2
07:03 15.6 °C 13.6 °C 1009.8 hPa Calm   1.6 km/h 88% 0.0 mm 16 W/m2
07:08 15.6 °C 13.6 °C 1009.8 hPa East 1.4 km/h 8 km/h 88% 0.0 mm 23 W/m2
07:13 15.6 °C 13.6 °C 1010.2 hPa ENE 3.2 km/h 9.7 km/h 88% 0.0 mm 21 W/m2
07:18 15.6 °C 13.6 °C 1010.2 hPa Calm   3.2 km/h 88% 0.0 mm 25 W/m2
07:23 15.7 °C 13.7 °C 1010.2 hPa NW 1.4 km/h 3.2 km/h 88% 0.0 mm 26 W/m2
07:28 15.7 °C 13.7 °C 1010.2 hPa East 4.7 km/h 6.4 km/h 88% 0.0 mm 30 W/m2
07:34 15.7 °C 13.5 °C 1010.2 hPa Calm   3.2 km/h 87% 0.0 mm 32 W/m2
07:39 15.7 °C 13.5 °C 1010.2 hPa West 6.4 km/h 6.4 km/h 87% 0.0 mm 35 W/m2
07:44 15.8 °C 13.6 °C 1010.2 hPa East 1.4 km/h 4.8 km/h 87% 0.0 mm 35 W/m2
07:49 15.8 °C 13.6 °C 1010.2 hPa SE 3.2 km/h 4.8 km/h 87% 0.0 mm 40 W/m2
07:54 15.8 °C 13.6 °C 1010.2 hPa NW 1.4 km/h 8 km/h 87% 0.0 mm 37 W/m2
07:59 15.8 °C 13.6 °C 1010.2 hPa ENE 1.4 km/h 8 km/h 87% 0.0 mm 30 W/m2
08:04 15.8 °C 13.6 °C 1010.2 hPa ENE 3.2 km/h 3.2 km/h 87% 0.0 mm 30 W/m2
08:09 15.9 °C 13.7 °C 1010.2 hPa ENE 3.2 km/h 11.3 km/h 87% 0.0 mm 28 W/m2
08:14 15.9 °C 13.7 °C 1010.2 hPa East 3.2 km/h 9.7 km/h 87% 0.0 mm 32 W/m2
08:19 15.9 °C 13.7 °C 1010.2 hPa NE 3.2 km/h 11.3 km/h 87% 0.0 mm 30 W/m2
08:24 15.9 °C 13.7 °C 1010.2 hPa ENE 3.2 km/h 6.4 km/h 87% 0.0 mm 33 W/m2
08:29 15.9 °C 13.7 °C 1010.2 hPa ESE 3.2 km/h 11.3 km/h 87% 0.0 mm 37 W/m2
08:34 15.9 °C 13.7 °C 1010.2 hPa East 4.7 km/h 9.7 km/h 87% 0.0 mm 39 W/m2
08:39 15.9 °C 13.9 °C 1010.2 hPa East 1.4 km/h 1.6 km/h 88% 0.0 mm 33 W/m2
08:44 15.9 °C 13.7 °C 1010.2 hPa ENE 4.7 km/h 9.7 km/h 87% 0.0 mm 32 W/m2
08:49 16 °C 13.8 °C 1010.2 hPa ENE 3.2 km/h 12.9 km/h 87% 0.0 mm 35 W/m2
08:54 16.1 °C 13.9 °C 1010.5 hPa East 3.2 km/h 9.7 km/h 87% 0.0 mm 42 W/m2
08:59 16.1 °C 13.9 °C 1010.5 hPa ESE 3.2 km/h 11.3 km/h 87% 0.0 mm 37 W/m2
09:04 16.1 °C 13.9 °C 1010.5 hPa NNE 1.4 km/h 4.8 km/h 87% 0.0 mm 35 W/m2
09:09 16.1 °C 13.9 °C 1010.5 hPa ENE 3.2 km/h 4.8 km/h 87% 0.0 mm 37 W/m2
09:14 16.2 °C 14.2 °C 1010.5 hPa ESE 4.7 km/h 9.7 km/h 88% 0.0 mm 33 W/m2
09:19 16.2 °C 14.2 °C 1010.8 hPa Calm   3.2 km/h 88% 0.0 mm 33 W/m2
09:24 16.2 °C 14.2 °C 1010.8 hPa ENE 3.2 km/h 3.2 km/h 88% 0.0 mm 35 W/m2
09:29 16.2 °C 14.2 °C 1010.8 hPa Calm   4.8 km/h 88% 0.0 mm 40 W/m2
09:34 16.2 °C 14.2 °C 1010.8 hPa NNW 1.4 km/h 3.2 km/h 88% 0.0 mm 44 W/m2
09:39 16.2 °C 14.2 °C 1010.8 hPa North 3.2 km/h 4.8 km/h 88% 0.0 mm 49 W/m2
09:44 16.2 °C 14 °C 1010.8 hPa NNW 1.4 km/h 4.8 km/h 87% 0.0 mm 44 W/m2
09:49 16.2 °C 14 °C 1010.8 hPa NNW 1.4 km/h 3.2 km/h 87% 0.0 mm 39 W/m2
09:54 16.2 °C 14 °C 1010.8 hPa Calm   1.6 km/h 87% 0.0 mm 33 W/m2
09:59 16.2 °C 14 °C 1010.8 hPa ENE 1.4 km/h 6.4 km/h 87% 0.0 mm 39 W/m2
10:04 16.3 °C 14.1 °C 1010.8 hPa Calm   4.8 km/h 87% 0.0 mm 39 W/m2
10:09 16.2 °C 14 °C 1010.8 hPa East 1.4 km/h 8 km/h 87% 0.0 mm 44 W/m2
10:14 16.2 °C 14 °C 1010.8 hPa NE 1.4 km/h 4.8 km/h 87% 0.0 mm 46 W/m2
10:19 16.2 °C 14 °C 1010.8 hPa Calm   8 km/h 87% 0.0 mm 54 W/m2
10:24 16.2 °C 14 °C 1010.8 hPa North 1.4 km/h 6.4 km/h 87% 0.0 mm 63 W/m2
10:29 16.2 °C 14 °C 1010.8 hPa NE 3.2 km/h 3.2 km/h 87% 0.0 mm 65 W/m2
10:34 16.3 °C 14.1 °C 1010.8 hPa North 1.4 km/h 6.4 km/h 87% 0.0 mm 72 W/m2
10:39 16.3 °C 14.1 °C 1011.2 hPa Calm   3.2 km/h 87% 0.0 mm 67 W/m2
10:44 16.3 °C 14.1 °C 1011.2 hPa ESE 1.4 km/h 6.4 km/h 87% 0.0 mm 58 W/m2
10:49 16.2 °C 14 °C 1011.2 hPa WNW 6.4 km/h 6.4 km/h 87% 0.0 mm 53 W/m2
10:54 16.2 °C 14 °C 1011.2 hPa WSW 3.2 km/h 3.2 km/h 87% 0.0 mm 54 W/m2
10:59 16.2 °C 14 °C 1011.2 hPa NW 3.2 km/h 6.4 km/h 87% 0.0 mm 60 W/m2
11:04 16.2 °C 14 °C 1011.2 hPa Calm   4.8 km/h 87% 0.0 mm 60 W/m2
11:09 16.3 °C 14.1 °C 1011.2 hPa North 3.2 km/h 6.4 km/h 87% 0.0 mm 65 W/m2
11:14 16.3 °C 14.1 °C 1011.2 hPa ESE 3.2 km/h 4.8 km/h 87% 0.0 mm 67 W/m2
11:19 16.3 °C 14.1 °C 1011.2 hPa ENE 1.4 km/h 8 km/h 87% 0.0 mm 65 W/m2
11:24 16.3 °C 14.3 °C 1011.2 hPa NNE 3.2 km/h 6.4 km/h 88% 0.0 mm 67 W/m2
11:29 16.3 °C 14.3 °C 1011.2 hPa Calm   4.8 km/h 88% 0.0 mm 79 W/m2
11:34 16.3 °C 14.3 °C 1011.2 hPa North 3.2 km/h 6.4 km/h 88% 0.0 mm 84 W/m2
11:39 16.3 °C 14.5 °C 1011.2 hPa NW 4.7 km/h 4.8 km/h 89% 0.0 mm 90 W/m2
11:44 16.2 °C 14.4 °C 1011.2 hPa ENE 3.2 km/h 6.4 km/h 89% 0.0 mm 83 W/m2
11:49 16.2 °C 14.6 °C 1011.2 hPa East 1.4 km/h 1.6 km/h 90% 0.0 mm 76 W/m2
11:54 16.2 °C 14.7 °C 1011.5 hPa NW 1.4 km/h 4.8 km/h 91% 0.0 mm 74 W/m2
11:59 16.2 °C 14.7 °C 1011.2 hPa ENE 1.4 km/h 8 km/h 91% 0.0 mm 84 W/m2
12:04 16.1 °C 14.8 °C 1011.5 hPa ESE 4.7 km/h 4.8 km/h 92% 0.0 mm 69 W/m2
12:09 16 °C 14.7 °C 1011.5 hPa Calm   6.4 km/h 92% 0.0 mm 69 W/m2
12:14 15.8 °C 14.5 °C 1011.5 hPa NW 1.4 km/h 4.8 km/h 92% 0.0 mm 67 W/m2
12:19 15.7 °C 14.4 °C 1011.5 hPa North 1.4 km/h 4.8 km/h 92% 0.0 mm 70 W/m2
12:24 15.7 °C 14.4 °C 1011.5 hPa Calm   3.2 km/h 92% 0.0 mm 72 W/m2
12:29 15.6 °C 14.5 °C 1011.5 hPa Calm   3.2 km/h 93% 0.0 mm 60 W/m2
12:34 15.6 °C 14.5 °C 1011.5 hPa ENE 1.4 km/h 3.2 km/h 93% 0.0 mm 56 W/m2
12:39 15.5 °C 14.4 °C 1011.9 hPa Calm   4.8 km/h 93% 0.0 mm 46 W/m2
12:44 15.4 °C 14.3 °C 1011.9 hPa WNW 3.2 km/h 3.2 km/h 93% 0.0 mm 44 W/m2
12:49 15.4 °C 14.3 °C 1011.9 hPa Calm   4.8 km/h 93% 0.2 mm 49 W/m2
12:54 15.4 °C 14.4 °C 1011.9 hPa East 3.2 km/h 4.8 km/h 94% 0.2 mm 70 W/m2
12:59 15.4 °C 14.4 °C 1011.9 hPa NE 3.2 km/h 6.4 km/h 94% 0.5 mm 54 W/m2
13:04 15.4 °C 14.4 °C 1011.9 hPa Calm   4.8 km/h 94% 0.5 mm 62 W/m2
13:10 15.4 °C 14.4 °C 1011.9 hPa WNW 3.2 km/h 6.4 km/h 94% 0.5 mm 63 W/m2
13:15 15.4 °C 14.4 °C 1011.9 hPa WNW 1.4 km/h 3.2 km/h 94% 0.5 mm 67 W/m2
13:20 15.4 °C 14.4 °C 1011.9 hPa WNW 1.4 km/h 1.6 km/h 94% 0.5 mm 69 W/m2
13:25 15.4 °C 14.4 °C 1011.5 hPa NNE 3.2 km/h 6.4 km/h 94% 0.5 mm 107 W/m2
13:30 15.5 °C 14.5 °C 1011.5 hPa Calm   3.2 km/h 94% 0.5 mm 120 W/m2
13:35 15.6 °C 14.6 °C 1011.5 hPa Calm   3.2 km/h 94% 0.8 mm 165 W/m2
13:40 15.6 °C 14.6 °C 1011.5 hPa Calm   3.2 km/h 94% 0.8 mm 128 W/m2
13:45 15.7 °C 14.9 °C 1011.5 hPa North 1.4 km/h 4.8 km/h 95% 0.5 mm 113 W/m2
13:50 15.8 °C 15 °C 1011.5 hPa NE 1.4 km/h 4.8 km/h 95% 0.8 mm 123 W/m2
13:55 15.8 °C 15 °C 1011.5 hPa West 3.2 km/h 6.4 km/h 95% 1.0 mm 100 W/m2
14:00 15.8 °C 14.8 °C 1011.5 hPa Calm   3.2 km/h 94% 1.0 mm 47 W/m2
14:05 15.8 °C 14.8 °C 1011.5 hPa Calm   6.4 km/h 94% 1.3 mm 54 W/m2
14:10 15.8 °C 14.8 °C 1011.5 hPa Calm     94% 1.3 mm 69 W/m2
14:15 15.8 °C 14.8 °C 1011.5 hPa Calm   6.4 km/h 94% 1.0 mm 49 W/m2
14:20 15.8 °C 14.8 °C 1011.5 hPa NNW 1.4 km/h 3.2 km/h 94% 1.0 mm 44 W/m2
14:25 15.8 °C 14.8 °C 1011.5 hPa East 3.2 km/h 3.2 km/h 94% 1.0 mm 44 W/m2
14:30 15.8 °C 14.8 °C 1011.9 hPa West 6.4 km/h 8 km/h 94% 1.0 mm 39 W/m2
14:35 15.8 °C 14.8 °C 1011.9 hPa Calm     94% 1.0 mm 49 W/m2
14:40 15.8 °C 14.8 °C 1011.9 hPa SE 3.2 km/h 8 km/h 94% 1.0 mm 67 W/m2
14:45 15.8 °C 14.8 °C 1011.9 hPa NNE 1.4 km/h 4.8 km/h 94% 1.0 mm 72 W/m2
14:50 15.9 °C 14.9 °C 1011.9 hPa NE 3.2 km/h 3.2 km/h 94% 0.8 mm 51 W/m2
14:55 15.9 °C 14.9 °C 1011.9 hPa Calm   3.2 km/h 94% 0.5 mm 39 W/m2
15:00 15.9 °C 14.9 °C 1011.9 hPa Calm   1.6 km/h 94% 0.5 mm 19 W/m2
15:05 15.9 °C 14.9 °C 1012.2 hPa West 1.4 km/h 3.2 km/h 94% 0.2 mm 11 W/m2
15:10 15.9 °C 14.9 °C 1012.2 hPa NW 1.4 km/h 3.2 km/h 94% 0.2 mm 14 W/m2
15:15 15.9 °C 14.9 °C 1011.9 hPa Calm   1.6 km/h 94% 1.5 mm 19 W/m2
15:20 15.8 °C 14.8 °C 1012.2 hPa Calm   1.6 km/h 94% 2.3 mm 14 W/m2
15:25 15.8 °C 14.8 °C 1012.2 hPa ENE 1.4 km/h 1.6 km/h 94% 2.5 mm 18 W/m2
15:30 15.8 °C 14.8 °C 1012.2 hPa NNW 1.4 km/h 4.8 km/h 94% 2.3 mm 18 W/m2
15:35 15.8 °C 14.8 °C 1011.9 hPa Calm   3.2 km/h 94% 2.5 mm 19 W/m2
15:40 15.8 °C 14.8 °C 1011.9 hPa East 1.4 km/h 4.8 km/h 94% 2.5 mm 21 W/m2
15:45 15.7 °C 14.7 °C 1011.9 hPa SSE 3.2 km/h 3.2 km/h 94% 2.5 mm 26 W/m2
15:50 15.7 °C 14.7 °C 1012.2 hPa WSW 1.4 km/h 4.8 km/h 94% 2.5 mm 32 W/m2
15:55 15.7 °C 14.9 °C 1012.2 hPa Calm   4.8 km/h 95% 2.8 mm 39 W/m2
16:00 15.7 °C 14.9 °C 1011.9 hPa NNW 3.2 km/h 3.2 km/h 95% 2.8 mm 47 W/m2
16:05 15.8 °C 15 °C 1011.9 hPa West 3.2 km/h 4.8 km/h 95% 2.8 mm 56 W/m2
16:10 15.8 °C 15 °C 1011.9 hPa WNW 1.4 km/h 6.4 km/h 95% 2.8 mm 44 W/m2
16:15 15.8 °C 15 °C 1012.2 hPa Calm   1.6 km/h 95% 1.5 mm 54 W/m2
16:20 15.8 °C 15 °C 1012.2 hPa West 3.2 km/h 6.4 km/h 95% 0.5 mm 88 W/m2
16:25 15.8 °C 15 °C 1012.2 hPa West 3.2 km/h 6.4 km/h 95% 0.5 mm 81 W/m2
16:30 15.8 °C 15 °C 1012.2 hPa West 1.4 km/h 6.4 km/h 95% 0.5 mm 88 W/m2
16:35 15.9 °C 15.1 °C 1012.2 hPa WNW 3.2 km/h 4.8 km/h 95% 0.2 mm 130 W/m2
16:40 15.9 °C 15.1 °C 1012.2 hPa WNW 3.2 km/h 3.2 km/h 95% 0.2 mm 127 W/m2
16:45 16.1 °C 15.3 °C 1012.2 hPa WNW 4.7 km/h 6.4 km/h 95% 0.2 mm 116 W/m2
16:50 16.1 °C 15.3 °C 1012.2 hPa WNW 1.4 km/h 3.2 km/h 95% 0.2 mm 102 W/m2
16:55 16.1 °C 15.3 °C 1012.2 hPa Calm   3.2 km/h 95% 0.0 mm 105 W/m2
17:01 16.2 °C 15.2 °C 1012.5 hPa Calm     94% 0.0 mm 116 W/m2
17:06 16.3 °C 15.3 °C 1012.9 hPa Calm   3.2 km/h 94% 0.0 mm 90 W/m2
17:11 16.3 °C 15.3 °C 1012.9 hPa Calm   1.6 km/h 94% 0.0 mm 97 W/m2
17:16 16.4 °C 15.4 °C 1012.9 hPa Calm   3.2 km/h 94% 0.2 mm 104 W/m2
17:21 16.4 °C 15.4 °C 1012.9 hPa Calm   1.6 km/h 94% 0.2 mm 120 W/m2
17:26 16.6 °C 15.6 °C 1012.5 hPa Calm   3.2 km/h 94% 0.2 mm 130 W/m2
17:31 16.6 °C 15.6 °C 1012.5 hPa Calm   1.6 km/h 94% 0.2 mm 121 W/m2
17:36 16.7 °C 15.7 °C 1012.5 hPa Calm   1.6 km/h 94% 0.2 mm 134 W/m2
17:41 16.8 °C 15.7 °C 1012.5 hPa West 3.2 km/h 3.2 km/h 93% 0.2 mm 461 W/m2
17:46 17.1 °C 16.1 °C 1012.5 hPa NW 1.4 km/h 4.8 km/h 94% 0.2 mm 304 W/m2
17:51 17.3 °C 16.2 °C 1012.5 hPa NW 3.2 km/h 3.2 km/h 93% 0.2 mm 473 W/m2
17:56 17.6 °C 16.5 °C 1012.5 hPa Calm   4.8 km/h 93% 0.2 mm 323 W/m2
18:01 17.7 °C 16.4 °C 1012.5 hPa Calm   3.2 km/h 92% 0.2 mm 297 W/m2
18:06 17.9 °C 16.6 °C 1012.9 hPa ESE 1.4 km/h 6.4 km/h 92% 0.2 mm 255 W/m2
18:11 18 °C 16.5 °C 1012.9 hPa Calm   3.2 km/h 91% 0.2 mm 174 W/m2
18:16 18.1 °C 16.6 °C 1012.9 hPa ESE 4.7 km/h 6.4 km/h 91% 0.0 mm 146 W/m2
18:21 18.1 °C 16.4 °C 1012.9 hPa East 1.4 km/h 4.8 km/h 90% 0.0 mm 160 W/m2
18:26 18 °C 16.3 °C 1012.9 hPa Calm   3.2 km/h 90% 0.0 mm 142 W/m2
18:31 17.9 °C 16.1 °C 1012.9 hPa NNE 1.4 km/h 4.8 km/h 89% 0.0 mm 139 W/m2
18:36 17.9 °C 16.2 °C 1012.9 hPa North 1.4 km/h 3.2 km/h 90% 0.0 mm 211 W/m2
18:41 18 °C 16.2 °C 1012.9 hPa ENE 1.4 km/h 4.8 km/h 89% 0.0 mm 193 W/m2
18:46 18.1 °C 16.3 °C 1012.9 hPa Calm   3.2 km/h 89% 0.0 mm 267 W/m2
18:51 18.3 °C 16.6 °C 1012.9 hPa ENE 3.2 km/h 4.8 km/h 90% 0.0 mm 285 W/m2
18:56 18.4 °C 16.6 °C 1012.9 hPa ENE 3.2 km/h 6.4 km/h 89% 0.0 mm 109 W/m2
19:01 18.3 °C 16.5 °C 1012.9 hPa East 3.2 km/h 4.8 km/h 89% 0.0 mm 105 W/m2
19:06 18.2 °C 16.2 °C 1012.9 hPa ESE 1.4 km/h 6.4 km/h 88% 0.0 mm 149 W/m2
19:11 18.3 °C 16.5 °C 1012.9 hPa East 3.2 km/h 3.2 km/h 89% 0.0 mm 234 W/m2
19:16 18.4 °C 16.4 °C 1013.2 hPa ESE 3.2 km/h 4.8 km/h 88% 0.0 mm 116 W/m2
19:21 18.5 °C 16.5 °C 1013.2 hPa NNE 3.2 km/h 6.4 km/h 88% 0.0 mm 355 W/m2
19:26 18.6 °C 16.4 °C 1013.2 hPa NNW 1.4 km/h 8 km/h 87% 0.0 mm 218 W/m2
19:31 18.6 °C 16.4 °C 1013.2 hPa West 9.7 km/h 11.3 km/h 87% 0.0 mm 104 W/m2
19:36 18.4 °C 16.2 °C 1013.2 hPa NE 3.2 km/h 6.4 km/h 87% 0.0 mm 93 W/m2
19:41 18.4 °C 16.4 °C 1013.2 hPa NW 9.7 km/h 9.7 km/h 88% 0.0 mm 158 W/m2
19:46 18.5 °C 16.3 °C 1013.2 hPa ENE 6.4 km/h 6.4 km/h 87% 0.0 mm 158 W/m2
19:51 18.6 °C 16.4 °C 1013.2 hPa NE 3.2 km/h 6.4 km/h 87% 0.0 mm 74 W/m2
19:56 18.5 °C 16.3 °C 1013.2 hPa ENE 1.4 km/h 3.2 km/h 87% 0.0 mm 90 W/m2
20:01 18.4 °C 16.2 °C 1013.2 hPa East 1.4 km/h 3.2 km/h 87% 0.0 mm 53 W/m2
20:06 18.4 °C 16.4 °C 1013.5 hPa North 1.4 km/h 1.6 km/h 88% 0.0 mm 130 W/m2
20:11 18.4 °C 16.2 °C 1013.5 hPa Calm   6.4 km/h 87% 0.0 mm 148 W/m2
20:16 18.6 °C 16.4 °C 1013.2 hPa NE 1.4 km/h 8 km/h 87% 0.0 mm 132 W/m2
20:21 18.6 °C 16.4 °C 1013.2 hPa NE 1.4 km/h 4.8 km/h 87% 0.0 mm 125 W/m2
20:26 18.6 °C 16.4 °C 1013.2 hPa Calm   8 km/h 87% 0.0 mm 111 W/m2
20:31 18.6 °C 16.4 °C 1013.2 hPa Calm     87% 0.0 mm 77 W/m2
20:36 18.5 °C 16.3 °C 1013.5 hPa ENE 3.2 km/h 4.8 km/h 87% 0.0 mm 86 W/m2
20:41 18.4 °C 16.2 °C 1013.5 hPa East 1.4 km/h 6.4 km/h 87% 0.0 mm 91 W/m2
20:46 18.4 °C 16.2 °C 1013.5 hPa NW 1.4 km/h 4.8 km/h 87% 0.0 mm 67 W/m2
20:51 18.4 °C 16.2 °C 1013.5 hPa NW 3.2 km/h 3.2 km/h 87% 0.0 mm 51 W/m2
20:56 18.2 °C 15.8 °C 1013.5 hPa NW 1.4 km/h 6.4 km/h 86% 0.0 mm 28 W/m2
21:01 17.8 °C 15.6 °C 1013.5 hPa West 6.4 km/h 6.4 km/h 87% 0.0 mm 19 W/m2
21:06 17.6 °C 15.6 °C 1013.5 hPa NW 4.7 km/h 4.8 km/h 88% 0.0 mm 21 W/m2
21:11 17.4 °C 15.6 °C 1013.9 hPa NNW 1.4 km/h 4.8 km/h 89% 0.0 mm 14 W/m2
21:16 17.2 °C 15.5 °C 1013.9 hPa NNW 6.4 km/h 6.4 km/h 90% 0.0 mm 11 W/m2
21:21 17.1 °C 15.4 °C 1013.9 hPa ENE 1.4 km/h 6.4 km/h 90% 0.0 mm 7 W/m2
21:26 17 °C 15.3 °C 1014.2 hPa Calm     90% 0.0 mm 5 W/m2
21:31 17 °C 15.5 °C 1014.2 hPa West 3.2 km/h 4.8 km/h 91% 0.0 mm 5 W/m2
21:36 16.9 °C 15.4 °C 1014.6 hPa WNW 3.2 km/h 4.8 km/h 91% 0.0 mm 0 W/m2
21:41 16.8 °C 15.3 °C 1014.6 hPa ENE 3.2 km/h 6.4 km/h 91% 0.0 mm 0 W/m2
21:46 16.8 °C 15.3 °C 1014.6 hPa NE 1.4 km/h 4.8 km/h 91% 0.0 mm 0 W/m2
21:51 16.8 °C 15.5 °C 1014.6 hPa NNE 1.4 km/h 6.4 km/h 92% 0.0 mm 0 W/m2
21:56 16.7 °C 15.4 °C 1014.6 hPa ENE 1.4 km/h 4.8 km/h 92% 0.0 mm 0 W/m2
22:01 16.7 °C 15.2 °C 1014.6 hPa North 1.4 km/h 4.8 km/h 91% 0.0 mm 0 W/m2
22:07 16.7 °C 15.2 °C 1014.6 hPa Calm   1.6 km/h 91% 0.0 mm 0 W/m2
22:12 16.6 °C 15.3 °C 1014.6 hPa Calm   4.8 km/h 92% 0.0 mm 0 W/m2
22:17 16.6 °C 15.3 °C 1014.9 hPa Calm   3.2 km/h 92% 0.0 mm 0 W/m2
22:22 16.5 °C 15.2 °C 1014.9 hPa NNW 1.4 km/h 3.2 km/h 92% 0.0 mm 0 W/m2
22:27 16.4 °C 15.1 °C 1014.9 hPa NE 1.4 km/h 1.6 km/h 92% 0.0 mm 0 W/m2
22:32 16.4 °C 15.1 °C 1015.2 hPa NE 3.2 km/h 3.2 km/h 92% 0.0 mm 0 W/m2
22:37 16.4 °C 15.1 °C 1014.9 hPa Calm   1.6 km/h 92% 0.0 mm 0 W/m2
22:42 16.3 °C 15 °C 1014.9 hPa East 1.4 km/h 3.2 km/h 92% 0.0 mm 0 W/m2
22:47 16.3 °C 15 °C 1014.9 hPa East 1.4 km/h 1.6 km/h 92% 0.0 mm 0 W/m2
22:52 16.2 °C 14.9 °C 1014.9 hPa Calm   1.6 km/h 92% 0.0 mm 0 W/m2
22:57 16.2 °C 15.1 °C 1014.9 hPa Calm   3.2 km/h 93% 0.0 mm 0 W/m2
23:02 16.2 °C 15.1 °C 1014.9 hPa NE 3.2 km/h 3.2 km/h 93% 0.0 mm 0 W/m2
23:07 16.2 °C 15.1 °C 1014.9 hPa NW 3.2 km/h 4.8 km/h 93% 0.0 mm 0 W/m2
23:12 16.1 °C 15 °C 1014.9 hPa WSW 6.4 km/h 8 km/h 93% 0.0 mm 0 W/m2
23:17 16.1 °C 15 °C 1014.9 hPa WNW 3.2 km/h 6.4 km/h 93% 0.0 mm 0 W/m2
23:22 15.9 °C 14.8 °C 1014.9 hPa West 3.2 km/h 6.4 km/h 93% 0.0 mm 0 W/m2
23:27 15.9 °C 14.8 °C 1014.9 hPa Calm   1.6 km/h 93% 0.0 mm 0 W/m2
23:32 15.9 °C 14.8 °C 1015.2 hPa Calm     93% 0.0 mm 0 W/m2
23:37 15.9 °C 14.8 °C 1014.9 hPa Calm     93% 0.0 mm 0 W/m2
23:42 15.9 °C 14.8 °C 1014.9 hPa NW 4.7 km/h 9.7 km/h 93% 0.0 mm 0 W/m2
23:47 15.9 °C 14.8 °C 1014.9 hPa Calm   3.2 km/h 93% 0.0 mm 0 W/m2
23:52 16 °C 14.9 °C 1015.2 hPa Calm   6.4 km/h 93% 0.0 mm 0 W/m2
23:57 16.1 °C 15 °C 1015.2 hPa Calm     93% 0.0 mm 0 W/m2
Juneau County Weather
Compliments of Weather Underground - 4 mb